SCP
0 0 -0 -0 0 -0 0 0 0 0 0 0 0 0 0 0 0 0 0 0 0 0 0 0 0 0 0 0 0 0 0 0 0 0 0 0 0 0 0 0 0 0 0
0 0 0 0 0 0 1 0 0 0 0 0 0 0 0 0 0 0 0 0 0 0 0 0 0 0 0 0 0 0 0 0 0 0 0 0 0 0 0 0 0 0 0
-0 0 1 0 0 1 0 0 0 0 0 0 0 0 0 0 0 0 0 0 0 0 0 0 0 0 0 0 0 0 0 0 0 0 0 0 0 0 0 0 0 0 0
0 0 1 1 1 0 0 0 0 0 0 0 0 -0 0 0 0 0 0 0 0 0 0 0 0 0 0 0 0 0 0 0 0 0 0 0 0 0 0 0 0 0 0
0 0 0 0 0 0 0 0 0 0 0 0 0 0 0 0 0 0 0 0 0 0 0 0 0 0 0 0 0 0 0 0 0 0 0 0 0 0 0 0 0 0 0
0 0 0 0 0 0 0 0 1 0 0 0 0 0 0 -0 0 0 0 0 0 0 0 0 0 0 0 0 0 0 0 0 0 0 0 0 0 0 0 0 0 0 0
-0 -0 0 -0 -0 -0 0 0 0 0 0 0 0 0 0 -0 -0 0 0 0 0 0 0 0 0 0 0 0 0 0 0 0 0 0 0 0 0 0 0 0 0 0 0
-0 -0 -0 -0 -0 0 0 0 0 0 0 0 0 0 0 0 0 0 0 0 0 0 0 0 0 0 0 0 0 0 0 0 0 0 0 0 0 0 0 0 0 0 0
-0 -0 -0 0 -0 0 0 0 0 0 0 0 0 0 0 0 0 0 0 0 0 0 0 0 0 0 0 0 0 0 0 0 0 0 0 0 0 0 0 0 0 0 0
0 0 0 0 0 -0 0 0 0 0 0 0 0 0 0 0 0 0 0 0 0 0 0 0 0 0 0 0 0 0 0 0 0 0 0 0 0 0 0 0 0 0 0
0 0 0 0 0 0 -0 0 0 0 0 0 0 0 0 0 0 0 0 0 0 0 0 0 0 0 0 0 0 0 0 0 0 0 0 0 0 0 0 0 0 0 0
0 0 0 0 0 0 0 -0 -0 0 0 0 0 0 0 0 0 0 0 0 0 0 0 0 0 0 0 0 0 0 0 0 0 0 0 0 0 0 0 0 0 0 0
0 0 0 0 0 0 0 -0 0 0 0 0 0 0 0 0 0 0 0 0 0 0 0 0 0 0 0 0 0 0 0 0 0 0 0 0 0 0 0 0 0 0 0
0 0 0 0 0 0 0 0 0 0 0 0 0 0 0 0 0 0 0 0 0 0 0 0 0 0 0 0 0 0 0 0 0 0 0 0 0 0 0 0 0 0 0
0 0 0 0 0 0 0 0 0 0 0 0 0 0 0 0 0 0 0 0 0 0 0 0 0 0 0 0 0 0 0 0 0 0 0 0 0 0 0 0 0 0 0
0 0 0 0 0 0 0 0 0 0 0 0 0 0 0 0 0 0 0 0 0 0 0 0 0 0 0 0 -0 -0 0 0 0 0 0 0 0 0 0 0 0 0 0
0 0 0 0 0 0 0 0 0 0 0 0 0 0 0 0 0 0 0 0 0 0 0 0 0 0 0 0 -0 -0 0 0 0 0 0 0 0 0 0 0 0 0 0
0 0 0 0 0 0 0 0 0 -0 -0 0 0 0 0 0 0 0 0 0 0 0 0 0 0 0 0 0 -0 -0 0 0 0 0 0 0 0 0 0 0 0 0 0
0 0 0 0 0 0 0 0 0 0 0 -0 0 0 0 0 0 0 0 0 0 0 0 0 0 0 0 0 -0 -0 0 0 0 0 0 0 0 0 0 0 0 0 0
0 0 0 0 0 0 0 0 0 0 0 0 0 0 0 0 0 0 0 0 0 0 0 0 0 0 0 0 0 -0 0 0 0 0 0 0 0 0 0 0 0 0 0
0 0 0 0 0 0 0 0 0 0 0 0 0 0 0 0 0 0 0 0 0 0 0 0 0 0 0 0 0 -0 0 0 0 0 0 0 0 0 0 0 0 0 0
0 0 0 0 0 0 0 0 0 0 0 0 0 0 0 0 0 0 0 0 0 0 0 0 0 0 0 0 -0 -0 0 0 0 0 0 0 0 0 0 0 0 0 0
0 0 0 0 0 0 0 0 0 -0 -0 -0 0 -0 0 0 0 0 0 0 0 0 0 0 0 0 0 0 0 -0 0 0 0 0 0 0 0 0 0 0 0 0 0
0 0 0 0 0 0 0 0 -0 0 0 0 0 0 -0 0 0 0 0 0 0 0 0 0 0 0 0 0 -0 0 0 0 0 0 0 0 0 0 0 0 0 0 0
0 0 0 0 0 0 0 0 0 0 -0 0 -0 -0 0 0 0 0 0 0 0 0 0 0 0 0 0 -0 0 0 0 0 0 0 0 0 0 0 0 0 0 0 0
0 0 0 0 0 0 0 0 0 0 0 -0 -0 -0 -0 0 0 0 0 0 0 0 0 0 0 0 0 0 0 0 0 0 0 0 0 0 0 0 0 0 0 0 0
Wind_Speed_500mb
22 30 31 47 50 56 56 58 64 58 58 58 55 43 41 31 22 15 12 10 10 10 13 11 6 5 1 6 9 8 7 7 16 16 10 9 7 7 5 3 4 5 9
40 45 39 39 51 55 60 55 60 55 53 48 45 42 41 27 22 22 17 11 9 12 13 6 5 4 1 5 8 8 6 11 16 18 15 8 5 8 12 8 8 6 4
32 31 39 35 40 46 47 49 47 24 20 54 61 42 39 35 27 30 24 13 11 12 7 5 3 1 2 4 6 6 5 3 12 25 13 8 13 11 14 16 16 12 13
2 15 20 28 38 41 42 40 33 31 16 35 63 67 55 39 50 42 28 17 12 9 5 3 2 3 2 3 7 8 8 9 10 15 25 19 13 10 9 6 7 12 13
13 11 18 23 30 36 38 31 33 48 27 15 32 49 41 38 39 35 32 22 14 9 4 5 2 3 4 4 8 11 11 9 9 9 9 4 2 4 9 10 10 9 5
10 2 7 15 20 18 21 23 31 34 24 25 28 40 37 35 45 37 34 27 17 11 7 7 4 3 4 6 9 10 10 9 7 8 8 6 5 1 2 3 8 11 14
5 2 7 11 15 26 19 24 34 33 28 29 31 34 35 42 37 35 34 27 21 12 9 10 6 7 7 6 8 10 10 8 6 8 8 10 11 10 10 4 8 12 15
3 5 11 18 23 28 22 19 29 28 36 33 29 41 34 36 39 40 36 28 22 14 14 15 13 11 10 8 7 10 10 9 9 9 10 12 8 3 5 6 14 22 21
5 3 5 17 20 27 35 30 22 24 32 26 21 25 38 47 46 43 36 28 26 21 19 19 17 15 15 14 12 11 14 13 11 10 7 7 2 4 10 16 19 23 34
10 7 5 2 10 11 11 16 22 31 20 20 25 22 26 35 44 41 38 35 30 30 26 25 21 19 18 21 19 16 16 17 15 14 8 6 9 13 17 23 29 27 31
13 13 12 14 14 15 16 15 16 18 18 19 20 19 18 27 33 39 36 39 37 37 33 29 25 23 20 23 25 24 22 21 21 16 11 13 14 16 21 28 31 31 32
11 15 16 16 17 19 18 20 19 19 21 21 19 17 26 31 35 37 38 43 45 42 38 34 29 29 25 23 26 28 30 30 27 20 19 17 17 21 29 32 37 35 38
9 12 17 23 25 27 28 18 16 17 20 23 25 21 25 32 36 40 41 42 45 47 44 43 36 33 32 30 26 24 31 35 31 23 21 17 21 29 30 37 41 33 34
12 13 17 21 24 25 27 25 17 14 18 19 24 28 29 30 33 40 45 43 48 50 45 43 40 39 37 33 32 31 28 29 30 26 22 21 28 32 36 38 33 29 22
13 14 18 23 28 30 31 27 20 17 20 21 25 27 31 35 36 38 44 47 50 51 47 47 42 42 42 38 35 38 31 24 22 23 24 27 28 32 37 28 24 21 17
14 14 17 23 31 35 37 36 33 23 24 23 23 30 30 37 40 41 43 48 51 53 50 48 44 42 41 40 37 34 32 29 25 26 23 23 29 35 28 24 20 18 19
12 14 18 26 31 36 39 41 41 35 21 23 23 30 32 33 43 41 46 48 51 53 57 49 47 42 47 38 35 37 32 31 29 27 26 28 33 29 22 20 19 23 19
11 9 14 20 26 31 34 37 41 41 32 22 18 25 33 35 36 44 54 47 54 56 58 46 49 48 46 38 39 37 35 41 38 32 32 33 31 24 20 17 19 24 24
8 5 10 17 24 29 32 34 36 38 38 30 23 13 14 20 30 38 41 55 54 59 64 60 53 48 43 34 41 40 38 38 37 35 32 31 29 22 18 22 18 17 16
5 2 6 15 23 30 35 36 34 34 34 35 30 19 21 26 33 36 38 50 56 63 66 64 55 46 41 44 34 34 35 37 37 33 28 26 21 19 22 21 22 18 18
6 5 7 14 21 28 34 35 35 33 33 33 34 33 25 25 30 33 35 42 50 59 68 66 56 45 37 27 30 24 32 37 33 28 27 18 18 24 21 21 26 23 24
13 11 14 19 22 27 36 36 34 34 32 35 36 36 33 28 32 38 38 38 43 53 63 69 48 41 35 34 28 34 33 36 32 27 20 19 23 12 10 19 22 25 22
17 18 28 32 34 28 26 30 32 36 35 36 40 41 39 34 32 35 35 32 41 46 59 53 43 40 28 31 33 40 33 29 25 22 18 15 4 7 12 12 19 23 20
44 50 42 41 40 36 29 26 31 36 39 41 40 44 43 42 33 25 28 22 28 42 49 48 47 32 30 28 42 36 28 28 21 15 7 5 7 10 14 20 24 25 22
46 46 49 50 50 45 43 37 31 35 37 41 41 43 45 45 45 27 21 28 34 27 45 46 32 22 31 42 32 27 25 20 14 5 4 9 11 15 17 19 21 23 24
47 48 46 48 54 51 46 43 43 41 40 39 45 44 46 45 46 33 22 29 23 27 40 34 21 30 34 28 21 22 17 11 4 3 6 12 14 16 18 22 27 27 24
Wind_Direction_500mb
259 261 248 238 241 245 246 246 244 239 238 232 232 234 237 232 247 244 257 283 297 319 335 323 348 10 112 184 189 183 205 252 217 191 194 203 191 182 174 132 103 53 35
254 249 248 240 235 242 242 240 239 235 231 233 257 251 231 248 258 262 257 263 293 322 315 328 336 352 99 154 177 176 228 268 216 194 206 223 240 219 234 253 254 268 308
248 232 230 230 229 229 231 233 232 232 325 327 282 250 237 222 250 268 254 258 271 301 308 329 343 25 118 169 196 179 190 227 208 206 200 227 252 232 253 264 252 272 281
261 193 194 199 211 225 231 232 236 223 269 286 267 259 262 246 236 259 246 244 254 281 310 304 334 65 78 156 200 165 142 109 118 188 223 246 235 238 256 260 261 281 286
85 150 188 228 228 228 236 244 246 212 293 226 248 255 243 238 244 234 232 228 241 254 252 244 263 95 100 138 143 141 140 131 139 148 159 163 130 224 242 261 291 309 299
69 127 206 230 241 221 224 232 231 216 250 252 264 238 239 244 224 229 222 225 226 234 237 242 221 150 138 141 139 138 138 135 132 136 135 140 136 130 79 298 296 295 300
65 23 185 190 193 200 222 228 231 248 230 282 262 245 245 228 234 232 225 229 228 231 230 232 214 201 173 160 149 164 163 155 144 140 133 122 110 104 96 70 318 312 309
99 192 186 202 206 203 291 285 267 258 261 276 265 258 242 233 241 228 220 231 232 219 230 231 215 207 207 190 165 169 172 157 147 144 126 126 102 91 54 329 313 313 304
122 243 272 228 244 247 285 295 280 279 277 264 281 272 264 251 238 223 215 231 232 228 228 233 222 212 219 214 200 188 184 185 169 164 151 139 213 311 325 325 308 306 308
87 91 63 297 305 312 311 307 298 301 297 260 283 275 278 251 223 217 219 229 232 232 231 238 232 226 229 225 216 211 205 204 191 194 202 240 277 300 311 311 306 296 296
70 75 55 44 21 354 335 321 306 312 301 290 290 275 262 228 224 227 231 235 235 235 236 237 241 236 238 237 228 226 215 210 207 217 233 253 273 291 297 302 300 298 291
52 57 56 41 19 353 328 309 299 304 298 289 282 276 257 236 231 229 229 228 234 233 238 233 239 242 240 240 231 231 226 220 220 235 245 256 274 290 298 299 303 299 298
93 61 39 31 21 9 4 339 292 271 272 286 283 278 258 243 239 236 237 234 232 229 236 234 237 238 239 235 232 235 235 230 227 235 243 255 279 292 297 301 306 303 299
107 68 40 26 18 7 3 4 344 293 269 269 275 273 264 261 256 244 239 236 233 233 239 239 241 239 235 233 234 237 240 234 228 231 241 261 282 292 299 306 310 310 308
104 68 51 35 25 16 8 3 347 314 289 273 269 272 265 263 260 254 243 240 238 236 241 240 236 236 236 233 239 239 242 234 223 232 255 274 281 289 299 305 307 315 317
116 90 60 42 35 27 20 9 359 329 296 293 277 276 272 261 261 261 248 242 240 239 238 241 231 232 234 241 237 236 243 238 239 251 267 278 283 288 294 308 317 315 320
118 82 56 42 34 27 20 14 6 356 328 288 282 286 286 274 268 263 253 246 240 234 233 236 227 222 226 220 222 234 247 252 255 261 268 276 284 288 291 315 316 323 311
120 82 51 32 25 19 14 12 13 14 10 350 294 276 292 291 281 272 256 251 244 238 235 226 223 230 227 216 226 241 253 256 258 264 264 272 281 283 294 314 312 316 316
140 76 31 22 14 11 10 6 4 10 15 9 358 338 308 301 290 292 277 255 247 238 228 223 232 226 228 228 243 233 242 255 262 265 263 275 281 281 298 308 288 302 306
171 126 26 13 11 15 17 11 3 2 3 5 5 337 313 297 293 295 291 277 258 244 231 227 230 227 229 219 225 225 246 256 258 261 266 282 273 285 300 278 282 299 300
223 272 331 349 357 0 4 5 4 2 359 353 347 344 322 302 305 301 303 290 276 256 237 230 226 224 210 212 227 241 245 251 257 267 281 274 283 295 287 269 280 291 295
249 280 306 319 335 341 344 350 352 350 347 349 343 340 340 320 303 296 296 302 296 266 242 224 214 209 190 215 211 230 247 255 258 273 273 285 297 280 267 277 292 287 290
288 304 312 310 313 328 331 333 342 342 340 342 343 334 330 325 314 295 300 297 295 268 237 214 201 189 211 216 222 229 250 255 266 269 284 300 262 280 289 291 301 286 277
282 290 296 291 293 302 318 320 337 335 334 332 334 332 326 325 316 294 294 290 287 257 230 194 201 190 198 218 227 245 245 248 252 277 293 284 288 296 282 300 296 283 268
270 271 277 282 281 285 293 304 313 328 326 326 322 326 326 324 324 304 309 299 281 267 211 200 183 188 214 212 246 251 248 248 255 249 304 300 289 295 298 296 288 285 280
283 283 285 287 281 278 283 285 301 311 321 318 317 315 321 319 323 314 301 297 266 229 186 183 178 194 197 227 239 223 235 240 222 276 287 303 290 296 309 303 301 297 292
Wind_Speed_850mb
22 30 31 47 50 56 56 58 64 58 58 58 55 43 41 31 22 15 12 10 10 10 13 11 6 5 1 6 9 8 7 7 16 16 10 9 7 7 5 3 4 5 9
40 45 39 39 51 55 60 55 60 55 53 48 45 42 41 27 22 22 17 11 9 12 13 6 5 4 1 5 8 8 6 11 16 18 15 8 5 8 12 8 8 6 4
32 31 39 35 40 46 47 49 47 24 20 54 61 42 39 35 27 30 24 13 11 12 7 5 3 1 2 4 6 6 5 3 12 25 13 8 13 11 14 16 16 12 13
2 15 20 28 38 41 42 40 33 31 16 35 63 67 55 39 50 42 28 17 12 9 5 3 2 3 2 3 7 8 8 9 10 15 25 19 13 10 9 6 7 12 13
13 11 18 23 30 36 38 31 33 48 27 15 32 49 41 38 39 35 32 22 14 9 4 5 2 3 4 4 8 11 11 9 9 9 9 4 2 4 9 10 10 9 5
10 2 7 15 20 18 21 23 31 34 24 25 28 40 37 35 45 37 34 27 17 11 7 7 4 3 4 6 9 10 10 9 7 8 8 6 5 1 2 3 8 11 14
5 2 7 11 15 26 19 24 34 33 28 29 31 34 35 42 37 35 34 27 21 12 9 10 6 7 7 6 8 10 10 8 6 8 8 10 11 10 10 4 8 12 15
3 5 11 18 23 28 22 19 29 28 36 33 29 41 34 36 39 40 36 28 22 14 14 15 13 11 10 8 7 10 10 9 9 9 10 12 8 3 5 6 14 22 21
5 3 5 17 20 27 35 30 22 24 32 26 21 25 38 47 46 43 36 28 26 21 19 19 17 15 15 14 12 11 14 13 11 10 7 7 2 4 10 16 19 23 34
10 7 5 2 10 11 11 16 22 31 20 20 25 22 26 35 44 41 38 35 30 30 26 25 21 19 18 21 19 16 16 17 15 14 8 6 9 13 17 23 29 27 31
13 13 12 14 14 15 16 15 16 18 18 19 20 19 18 27 33 39 36 39 37 37 33 29 25 23 20 23 25 24 22 21 21 16 11 13 14 16 21 28 31 31 32
11 15 16 16 17 19 18 20 19 19 21 21 19 17 26 31 35 37 38 43 45 42 38 34 29 29 25 23 26 28 30 30 27 20 19 17 17 21 29 32 37 35 38
9 12 17 23 25 27 28 18 16 17 20 23 25 21 25 32 36 40 41 42 45 47 44 43 36 33 32 30 26 24 31 35 31 23 21 17 21 29 30 37 41 33 34
12 13 17 21 24 25 27 25 17 14 18 19 24 28 29 30 33 40 45 43 48 50 45 43 40 39 37 33 32 31 28 29 30 26 22 21 28 32 36 38 33 29 22
13 14 18 23 28 30 31 27 20 17 20 21 25 27 31 35 36 38 44 47 50 51 47 47 42 42 42 38 35 38 31 24 22 23 24 27 28 32 37 28 24 21 17
14 14 17 23 31 35 37 36 33 23 24 23 23 30 30 37 40 41 43 48 51 53 50 48 44 42 41 40 37 34 32 29 25 26 23 23 29 35 28 24 20 18 19
12 14 18 26 31 36 39 41 41 35 21 23 23 30 32 33 43 41 46 48 51 53 57 49 47 42 47 38 35 37 32 31 29 27 26 28 33 29 22 20 19 23 19
11 9 14 20 26 31 34 37 41 41 32 22 18 25 33 35 36 44 54 47 54 56 58 46 49 48 46 38 39 37 35 41 38 32 32 33 31 24 20 17 19 24 24
8 5 10 17 24 29 32 34 36 38 38 30 23 13 14 20 30 38 41 55 54 59 64 60 53 48 43 34 41 40 38 38 37 35 32 31 29 22 18 22 18 17 16
5 2 6 15 23 30 35 36 34 34 34 35 30 19 21 26 33 36 38 50 56 63 66 64 55 46 41 44 34 34 35 37 37 33 28 26 21 19 22 21 22 18 18
6 5 7 14 21 28 34 35 35 33 33 33 34 33 25 25 30 33 35 42 50 59 68 66 56 45 37 27 30 24 32 37 33 28 27 18 18 24 21 21 26 23 24
13 11 14 19 22 27 36 36 34 34 32 35 36 36 33 28 32 38 38 38 43 53 63 69 48 41 35 34 28 34 33 36 32 27 20 19 23 12 10 19 22 25 22
17 18 28 32 34 28 26 30 32 36 35 36 40 41 39 34 32 35 35 32 41 46 59 53 43 40 28 31 33 40 33 29 25 22 18 15 4 7 12 12 19 23 20
44 50 42 41 40 36 29 26 31 36 39 41 40 44 43 42 33 25 28 22 28 42 49 48 47 32 30 28 42 36 28 28 21 15 7 5 7 10 14 20 24 25 22
46 46 49 50 50 45 43 37 31 35 37 41 41 43 45 45 45 27 21 28 34 27 45 46 32 22 31 42 32 27 25 20 14 5 4 9 11 15 17 19 21 23 24
47 48 46 48 54 51 46 43 43 41 40 39 45 44 46 45 46 33 22 29 23 27 40 34 21 30 34 28 21 22 17 11 4 3 6 12 14 16 18 22 27 27 24
Wind_Direction_850mb
259 261 248 238 241 245 246 246 244 239 238 232 232 234 237 232 247 244 257 283 297 319 335 323 348 10 112 184 189 183 205 252 217 191 194 203 191 182 174 132 103 53 35
254 249 248 240 235 242 242 240 239 235 231 233 257 251 231 248 258 262 257 263 293 322 315 328 336 352 99 154 177 176 228 268 216 194 206 223 240 219 234 253 254 268 308
248 232 230 230 229 229 231 233 232 232 325 327 282 250 237 222 250 268 254 258 271 301 308 329 343 25 118 169 196 179 190 227 208 206 200 227 252 232 253 264 252 272 281
261 193 194 199 211 225 231 232 236 223 269 286 267 259 262 246 236 259 246 244 254 281 310 304 334 65 78 156 200 165 142 109 118 188 223 246 235 238 256 260 261 281 286
85 150 188 228 228 228 236 244 246 212 293 226 248 255 243 238 244 234 232 228 241 254 252 244 263 95 100 138 143 141 140 131 139 148 159 163 130 224 242 261 291 309 299
69 127 206 230 241 221 224 232 231 216 250 252 264 238 239 244 224 229 222 225 226 234 237 242 221 150 138 141 139 138 138 135 132 136 135 140 136 130 79 298 296 295 300
65 23 185 190 193 200 222 228 231 248 230 282 262 245 245 228 234 232 225 229 228 231 230 232 214 201 173 160 149 164 163 155 144 140 133 122 110 104 96 70 318 312 309
99 192 186 202 206 203 291 285 267 258 261 276 265 258 242 233 241 228 220 231 232 219 230 231 215 207 207 190 165 169 172 157 147 144 126 126 102 91 54 329 313 313 304
122 243 272 228 244 247 285 295 280 279 277 264 281 272 264 251 238 223 215 231 232 228 228 233 222 212 219 214 200 188 184 185 169 164 151 139 213 311 325 325 308 306 308
87 91 63 297 305 312 311 307 298 301 297 260 283 275 278 251 223 217 219 229 232 232 231 238 232 226 229 225 216 211 205 204 191 194 202 240 277 300 311 311 306 296 296
70 75 55 44 21 354 335 321 306 312 301 290 290 275 262 228 224 227 231 235 235 235 236 237 241 236 238 237 228 226 215 210 207 217 233 253 273 291 297 302 300 298 291
52 57 56 41 19 353 328 309 299 304 298 289 282 276 257 236 231 229 229 228 234 233 238 233 239 242 240 240 231 231 226 220 220 235 245 256 274 290 298 299 303 299 298
93 61 39 31 21 9 4 339 292 271 272 286 283 278 258 243 239 236 237 234 232 229 236 234 237 238 239 235 232 235 235 230 227 235 243 255 279 292 297 301 306 303 299
107 68 40 26 18 7 3 4 344 293 269 269 275 273 264 261 256 244 239 236 233 233 239 239 241 239 235 233 234 237 240 234 228 231 241 261 282 292 299 306 310 310 308
104 68 51 35 25 16 8 3 347 314 289 273 269 272 265 263 260 254 243 240 238 236 241 240 236 236 236 233 239 239 242 234 223 232 255 274 281 289 299 305 307 315 317
116 90 60 42 35 27 20 9 359 329 296 293 277 276 272 261 261 261 248 242 240 239 238 241 231 232 234 241 237 236 243 238 239 251 267 278 283 288 294 308 317 315 320
118 82 56 42 34 27 20 14 6 356 328 288 282 286 286 274 268 263 253 246 240 234 233 236 227 222 226 220 222 234 247 252 255 261 268 276 284 288 291 315 316 323 311
120 82 51 32 25 19 14 12 13 14 10 350 294 276 292 291 281 272 256 251 244 238 235 226 223 230 227 216 226 241 253 256 258 264 264 272 281 283 294 314 312 316 316
140 76 31 22 14 11 10 6 4 10 15 9 358 338 308 301 290 292 277 255 247 238 228 223 232 226 228 228 243 233 242 255 262 265 263 275 281 281 298 308 288 302 306
171 126 26 13 11 15 17 11 3 2 3 5 5 337 313 297 293 295 291 277 258 244 231 227 230 227 229 219 225 225 246 256 258 261 266 282 273 285 300 278 282 299 300
223 272 331 349 357 0 4 5 4 2 359 353 347 344 322 302 305 301 303 290 276 256 237 230 226 224 210 212 227 241 245 251 257 267 281 274 283 295 287 269 280 291 295
249 280 306 319 335 341 344 350 352 350 347 349 343 340 340 320 303 296 296 302 296 266 242 224 214 209 190 215 211 230 247 255 258 273 273 285 297 280 267 277 292 287 290
288 304 312 310 313 328 331 333 342 342 340 342 343 334 330 325 314 295 300 297 295 268 237 214 201 189 211 216 222 229 250 255 266 269 284 300 262 280 289 291 301 286 277
282 290 296 291 293 302 318 320 337 335 334 332 334 332 326 325 316 294 294 290 287 257 230 194 201 190 198 218 227 245 245 248 252 277 293 284 288 296 282 300 296 283 268
270 271 277 282 281 285 293 304 313 328 326 326 322 326 326 324 324 304 309 299 281 267 211 200 183 188 214 212 246 251 248 248 255 249 304 300 289 295 298 296 288 285 280
283 283 285 287 281 278 283 285 301 311 321 318 317 315 321 319 323 314 301 297 266 229 186 183 178 194 197 227 239 223 235 240 222 276 287 303 290 296 309 303 301 297 292